KB7YYZ Weather Reports


Display with metric or nautical units.
time (UTC)temp
F
wind
direction
speed
MPH
gust
MPH
rain 1hr
in
rain 24hr
in
rain mn
in
humidity
%
barometer
mb
20260904192520 97 284 1.0 1.0 0.00 0.03 0.00 37 1009.4
20260904191526 97 345 1.0 1.0 0.00 0.03 0.00 39 1009.6
20260904190524 96 233 0.0 1.0 0.00 0.03 0.00 40 1009.7
20260904185538 95 320 1.0 1.0 0.00 0.03 0.00 41 1009.7
20260904184544 95 252 1.0 1.0 0.00 0.03 0.00 42 1009.8
20260904183529 94 205 1.0 1.0 0.00 0.03 0.00 44 1009.9
20260904182523 94 185 1.0 1.0 0.00 0.03 0.00 46 1010.1
20260904181521 94 266 1.0 1.0 0.00 0.03 0.00 46 1010.2
20260904180544 93 156 1.0 1.0 0.00 0.03 0.00 48 1010.2
20260904175542 93 192 1.0 1.0 0.00 0.03 0.00 48 1010.4
20260904174528 92 184 1.0 1.0 0.00 0.03 0.00 49 1010.6
20260904173521 92 351 1.0 1.0 0.00 0.03 0.00 50 1010.7
20260904172529 91 211 2.0 2.0 0.00 0.03 0.00 51 1010.8
20260904171535 91 133 2.0 2.0 0.00 0.03 0.00 50 1010.8
20260904170532 90 222 2.0 2.0 0.00 0.03 0.00 51 1010.9
20260904165522 90 190 2.0 2.0 0.00 0.03 0.00 52 1010.8
20260904164528 89 178 2.0 2.0 0.00 0.03 0.00 52 1010.8
20260904163544 89 167 2.0 2.0 0.00 0.03 0.00 52 1010.7
20260904162525 88 223 2.0 2.0 0.00 0.03 0.00 53 1010.6
20260904161522 88 195 2.0 2.0 0.00 0.03 0.00 53 1010.6
20260904160541 87 115 2.0 2.0 0.00 0.03 0.00 53 1010.6
20260904155534 87 236 2.0 2.0 0.00 0.03 0.00 53 1010.6
20260904154520 87 149 2.0 2.0 0.00 0.03 0.00 54 1010.5
20260904153526 86 177 2.0 2.0 0.00 0.03 0.00 54 1010.5
20260904152532 86 157 1.0 2.0 0.00 0.03 0.00 55 1010.5
20260904151539 85 91 2.0 2.0 0.00 0.03 0.00 55 1010.4
20260904150531 85 191 2.0 2.0 0.00 0.03 0.00 55 1010.4
20260904145547 85 169 2.0 2.0 0.00 0.03 0.00 55 1010.4
20260904144524 84 183 2.0 2.0 0.00 0.03 0.00 55 1010.4
20260904143529 84 191 1.0 2.0 0.00 0.03 0.00 56
20260904142531 83 149 1.0 1.0 0.00 0.03 0.00 56
20260904141527 82 210 1.0 1.0 0.00 0.03 0.00 56 1010.2
20260904140539 82 199 0.0 1.0 0.00 0.03 0.00 56 1010.2
20260904135521 81 154 0.0 1.0 0.00 0.03 0.00 56 1010.0
20260904134526 81 139 1.0 1.0 0.00 0.03 0.00 56 1009.9
20260904133533 81 193 0.0 1.0 0.00 0.03 0.00 56 1009.8
20260904132524 81 189 0.0 1.0 0.00 0.03 0.00 56 1009.7
20260904131521 81 209 0.0 1.0 0.00 0.03 0.00 56 1009.5
20260904130548 81 208 0.0 0.0 0.00 0.03 0.00 56 1009.3
20260904125526 81 166 0.0 1.0 0.00 0.03 0.00 56 1009.1
20260904124523 82 208 1.0 1.0 0.00 0.03 0.00 57 1009.0
20260904123536 82 191 1.0 1.0 0.00 0.03 0.00 56 1008.8
20260904122540 82 187 1.0 1.0 0.00 0.03 0.00 56 1008.7
20260904121547 82 183 1.0 1.0 0.00 0.03 0.00 56 1008.7
20260904120601 82 220 1.0 1.0 0.00 0.03 0.00 56 1008.7
20260904115526 82 105 1.0 1.0 0.00 0.03 0.00 56 1008.7
20260904114532 83 191 1.0 1.0 0.00 0.03 0.00 56 1008.6
20260904113534 83 220 1.0 1.0 0.00 0.03 0.00 56 1008.6
20260904112534 82 181 1.0 1.0 0.00 0.03 0.00 56 1008.5
20260904111525 82 184 2.0 2.0 0.00 0.03 0.00 56 1008.6
20260904110524 83 204 1.0 2.0 0.00 0.03 0.00 56 1008.6
20260904105550 83 182 2.0 2.0 0.00 0.03 0.00 56 1008.5
20260904104530 83 176 1.0 1.0 0.00 0.03 0.00 56 1008.5
20260904103543 83 181 1.0 1.0 0.00 0.03 0.00 56 1008.6
20260904102521 83 128 1.0 1.0 0.00 0.03 0.00 56 1008.6
20260904101525 83 178 1.0 1.0 0.00 0.03 0.00 56 1008.5
20260904100526 83 192 1.0 2.0 0.00 0.03 0.00 56 1008.4
20260904095548 83 177 2.0 2.0 0.00 0.03 0.00 56 1008.4
20260904094531 83 174 2.0 2.0 0.00 0.03 0.00 56 1008.2
20260904093529 83 191 2.0 2.0 0.00 0.03 0.00 56 1008.3
20260904092547 83 140 2.0 2.0 0.00 0.03 0.00 56 1008.2
20260904091525 83 143 2.0 2.0 0.00 0.03 0.00 56 1008.2
20260904090524 83 157 1.0 2.0 0.00 0.03 0.00 56 1008.3
20260904085520 83 198 1.0 1.0 0.00 0.03 0.00 56 1008.3
20260904084603 83 193 1.0 1.0 0.00 0.03 0.00 56 1008.3
20260904083530 83 162 1.0 1.0 0.00 0.03 0.00 56 1008.3
20260904082521 83 164 1.0 1.0 0.00 0.03 0.00 56 1008.4
20260904081541 83 64 1.0 1.0 0.00 0.03 0.00 56 1008.5
20260904080535 84 146 1.0 1.0 0.00 0.03 0.00 55 1008.5
20260904075539 84 158 1.0 1.0 0.00 0.03 0.00 55 1008.5
20260904074526 84 155 1.0 1.0 0.00 0.03 0.00 55 1008.5
20260904073541 84 155 1.0 1.0 0.00 0.03 0.00 55 1008.5
20260904072525 84 161 1.0 1.0 0.00 0.03 0.00 55 1008.6
20260904071533 84 236 1.0 1.0 0.00 0.03 0.00 55 1008.6
20260904070536 84 177 1.0 1.0 0.00 0.03 0.00 55 1008.5
20260904065544 85 224 1.0 2.0 0.00 0.03 0.03 54 1008.5
20260904064558 85 186 1.0 2.0 0.00 0.03 0.03 54 1008.5
20260904063521 85 171 1.0 2.0 0.00 0.03 0.03 54 1008.6
20260904062529 85 153 1.0 1.0 0.00 0.03 0.03 54 1008.5
20260904061554 85 146 1.0 1.0 0.00 0.03 0.03 53 1008.5
20260904060521 85 197 2.0 2.0 0.00 0.03 0.03 53 1008.5
20260904055527 85 193 2.0 2.0 0.00 0.03 0.03 53 1008.4
20260904054525 85 213 1.0 2.0 0.00 0.03 0.03 53 1008.3
20260904053526 85 196 1.0 1.0 0.00 0.03 0.03 53 1008.2
20260904052521 86 187 1.0 2.0 0.00 0.03 0.03 53 1008.2
20260904051520 86 144 1.0 1.0 0.00 0.03 0.03 53 1008.3
20260904050552 86 234 1.0 1.0 0.00 0.03 0.03 53 1008.3
20260904045549 86 163 1.0 1.0 0.00 0.03 0.03 53 1008.4
20260904044522 86 170 1.0 2.0 0.00 0.03 0.03 53 1008.4
20260904043528 86 192 1.0 1.0 0.00 0.03 0.03 53 1008.5
20260904042534 86 195 2.0 2.0 0.00 0.03 0.03 53 1008.6
20260904041528 86 196 1.0 1.0 0.00 0.03 0.03 53 1008.6
20260904040550 87 202 2.0 2.0 0.00 0.03 0.03 52 1008.5
20260904035548 86 161 2.0 2.0 0.00 0.03 0.03 52 1008.4
20260904034524 87 198 2.0 2.0 0.00 0.03 0.03 52 1008.2
20260904033550 87 232 2.0 2.0 0.00 0.03 0.03 52 1008.0
20260904032525 87 178 2.0 3.0 0.00 0.03 0.03 52 1007.8
20260904031543 87 201 2.0 2.0 0.00 0.03 0.03 52 1007.7
20260904030522 87 169 2.0 2.0 0.00 0.03 0.03 52 1007.5
20260904025543 88 164 1.0 2.0 0.00 0.03 0.03 51 1007.3
20260904024528 88 219 2.0 2.0 0.00 0.03 0.03 51
20260904023544 88 348 1.0 2.0 0.00 0.03 0.03 51
20260904022549 88 194 1.0 2.0 0.00 0.03 0.03 51
20260904021527 88 155 1.0 1.0 0.00 0.03 0.03 50
20260904020524 89 161 1.0 1.0 0.00 0.03 0.03 50 1007.0
20260904015546 89 242 1.0 1.0 0.00 0.03 0.03 49 1006.8
20260904014541 90 147 1.0 2.0 0.00 0.03 0.03 49 1006.6
20260904013537 90 159 1.0 1.0 0.00 0.03 0.03 50 1006.5
20260904012543 90 189 1.0 1.0 0.03 0.03 0.03 52 1006.5
20260904011524 90 192 1.0 1.0 0.03 0.03 0.03 52 1006.3
20260904010522 90 159 1.0 1.0 0.03 0.03 0.03 52 1006.3
20260904005528 90 205 0.0 1.0 0.03 0.03 0.03 52 1006.4
20260904004531 90 0.0 0.0 0.03 0.03 0.03 52 1006.4
20260904003540 91 0.0 0.0 0.03 0.03 0.03 53 1006.5
20260904002521 92 17 0.0 0.0 0.00 0.00 0.00 52 1006.3
20260904001559 92 180 1.0 1.0 0.00 0.00 0.00 49 1006.4
20260904000546 93 181 1.0 1.0 0.00 0.00 0.00 46 1006.3
20260903235526 94 154 2.0 2.0 0.00 0.00 0.00 44 1006.2
20260903234542 96 148 1.0 1.0 0.00 0.00 0.00 40 1006.4
20260903233538 96 237 1.0 1.0 0.00 0.00 0.00 40 1006.3
20260903232536 96 293 1.0 1.0 0.00 0.00 0.00 39 1006.4
20260903231523 97 226 1.0 2.0 0.00 0.00 0.00 40 1006.4
20260903230524 97 301 1.0 1.0 0.00 0.00 0.00 41 1006.3
20260903225550 97 280 1.0 1.0 0.00 0.00 0.00 40 1006.5
20260903224527 97 271 1.0 1.0 0.00 0.00 0.00 39 1006.5
20260903223547 97 244 1.0 1.0 0.00 0.00 0.00 40 1006.5
20260903222539 97 311 1.0 1.0 0.00 0.00 0.00 40 1006.6
20260903221522 97 305 1.0 1.0 0.00 0.00 0.00 40 1006.8
20260903220520 96 290 0.0 0.0 0.00 0.00 0.00 39 1006.9
20260903215557 97 127 1.0 1.0 0.00 0.00 0.00 39 1007.0
20260903214527 97 299 1.0 1.0 0.00 0.00 0.00 40 1007.1
20260903213541 97 242 2.0 2.0 0.00 0.00 0.00 40 1007.2
20260903212553 97 255 1.0 2.0 0.00 0.00 0.00 40 1007.3
20260903211528 97 14 1.0 1.0 0.00 0.00 0.00 41 1007.3
20260903210533 97 285 1.0 1.0 0.00 0.00 0.00 41 1007.5
20260903205523 96 339 2.0 2.0 0.00 0.00 0.00 41 1007.6
20260903204538 96 355 1.0 2.0 0.00 0.00 0.00 41 1007.8
20260903203520 96 335 1.0 1.0 0.00 0.00 0.00 41 1007.9
20260903202526 96 340 1.0 1.0 0.00 0.00 0.00 41 1008.1
20260903201551 96 301 1.0 1.0 0.00 0.00 0.00 42 1008.3
20260903200520 95 28 1.0 1.0 0.00 0.00 0.00 42 1008.4
20260903195519 95 206 1.0 1.0 0.00 0.00 0.00 41 1008.6
20260903194535 95 227 1.0 1.0 0.00 0.00 0.00 42 1008.7
20260903193523 95 278 0.0 1.0 0.00 0.00 0.00 43 1008.9